OK1LPD-6 Weather Reports


time (UTC)temp
C
wind
direction
speed
KPH
gust
KPH
rain 1hr
cm
rain 24hr
cm
rain mn
cm
humidity
%
barometer
mb
20260506070532 17 0 0.0 0.0 0.00 0.61 0.61 70 1007.1
20260506061546 17 0 0.0 0.0 0.00 0.61 0.61 75 1007.0
20260506060533 16 0 0.0 0.0 0.00 0.61 0.61 80 1006.8
20260506050533 16 0 0.0 0.0 0.00 0.61 0.61 81 1007.1
20260506044544 15 0 0.0 0.0 0.00 0.61 0.61 90 1007.0
20260506043534 14 0 0.0 0.0 0.00 0.61 0.61 93 1006.8
20260506042534 14 0 0.0 0.0 0.00 0.61 0.61 97 1006.7
20260506041545 13 0 0.0 0.0 0.00 0.61 0.61 98 1006.8
20260506040534 12 0 0.0 0.0 0.00 0.61 0.61 99 1006.9
20260506035534 11 0 0.0 0.0 0.00 0.61 0.61 99 1006.8
20260506034546 11 0 0.0 0.0 0.00 0.61 0.61 99 1006.5
20260506033534 11 0 0.0 0.0 0.00 0.61 0.61 99 1006.5
20260506032534 11 0 0.0 0.0 0.00 0.61 0.61 99 1006.7
20260506031449 11 0 0.0 0.0 0.00 0.61 0.61 99 1006.6
20260506030435 11 0 0.0 0.0 0.00 0.61 0.61 99 1006.3
20260506025435 11 0 0.0 0.0 0.00 0.61 0.61 99 1006.5
20260506024445 12 0 0.0 0.0 0.00 0.61 0.61 99 1006.6
20260506023435 12 0 0.0 0.0 0.00 0.61 0.61 99 1006.6
20260506022435 12 0 0.0 0.0 0.00 0.61 0.61 99 1006.8
20260506021448 12 0 0.0 0.0 0.00 0.61 0.61 99 1006.8
20260506020435 12 0 0.0 0.0 0.00 0.61 0.61 98 1006.8
20260506015435 12 0 0.0 0.0 0.00 0.61 0.61 98 1006.9
20260506014446 12 0 0.0 0.0 0.00 0.61 0.61 98 1006.5
20260506013435 12 0 0.0 0.0 0.00 0.61 0.61 98 1006.7
20260506012435 13 0 0.0 0.0 0.00 0.61 0.61 98 1006.7
20260506011447 13 0 0.0 0.0 0.00 0.61 0.61 98 1006.4
20260506010436 13 0 0.0 0.0 0.00 0.61 0.61 98 1006.4
20260506005435 13 0 0.0 0.0 0.00 0.61 0.61 97 1006.3
20260506004447 13 0 0.0 0.0 0.00 0.61 0.61 97 1006.2
20260506003436 13 0 0.0 0.0 0.00 0.61 0.61 97 1006.3
20260506002435 13 0 0.0 0.0 0.00 0.61 0.61 97 1006.4
20260506001455 13 0 0.0 0.0 0.00 0.61 0.61 97 1006.4
20260506000438 14 0 0.0 0.0 0.00 0.61 0.61 96 1006.3
20260505235436 14 0 0.0 0.0 0.00 0.61 0.61 96 1006.1
20260505234455 14 0 0.0 0.0 0.00 0.61 0.61 96 1006.2
20260505233437 14 0 0.0 0.0 0.00 0.61 0.61 95 1006.3
20260505232437 14 0 0.0 0.0 0.00 0.61 0.61 95 1006.4
20260505231458 14 0 0.0 0.0 0.00 0.61 0.61 95 1006.6
20260505230437 14 0 0.0 0.0 0.03 0.61 0.61 95 1006.8
20260505225437 14 0 0.0 0.0 0.05 0.64 0.61 95 1006.8
20260505224457 14 0 0.0 0.0 0.10 0.69 0.61 95 1006.9
20260505223437 15 0 0.0 0.0 0.13 0.71 0.61 95 1006.5
20260505222437 15 0 0.0 0.0 0.18 0.71 0.61 95 1006.8
20260505221459 15 0 0.0 0.0 0.23 0.71 0.61 94 1007.0
20260505220437 15 45 0.0 1.6 0.30 0.69 0.56 94 1006.6
20260505215438 15 0 0.0 0.0 0.30 0.66 0.53 94 1006.4
20260505214456 15 0 0.0 0.0 0.33 0.61 0.48 94 1006.5
20260505213438 15 0 0.0 0.0 0.46 0.61 0.48 93 1006.7
20260505212438 15 0 0.0 0.0 0.43 0.53 0.43 92 1006.7
20260505211459 15 0 0.0 0.0 0.36 0.48 0.36 91 1006.8
20260505210438 15 0 0.0 0.0 0.28 0.38 0.28 89 1006.6
20260505205438 15 0 0.0 0.0 0.23 0.36 0.23 87 1006.5
20260505204500 16 0 0.0 0.0 0.15 0.28 0.15 83 1006.0
20260505203438 16 1 0.0 1.6 0.03 0.15 0.03 80 1005.9
20260505202438 17 0 0.0 0.0 0.00 0.13 0.00 69 1005.7
20260505201459 18 0 0.0 0.0 0.00 0.13 0.00 60 1005.2
20260505200438 18 0 0.0 0.0 0.00 0.13 0.00 57 1004.6
20260505195438 18 0 0.0 0.0 0.00 0.13 0.00 58 1004.5
20260505194457 18 0 0.0 0.0 0.00 0.13 0.00 57 1004.4
20260505193439 18 0 0.0 0.0 0.00 0.13 0.00 61 1004.6
20260505192438 17 0 0.0 0.0 0.00 0.13 0.00 61 1004.2
20260505191459 17 0 0.0 0.0 0.00 0.13 0.00 60 1003.8
20260505190439 18 0 0.0 0.0 0.00 0.13 0.00 58 1003.7
20260505185439 18 0 0.0 0.0 0.00 0.13 0.00 57 1003.9
20260505184458 18 0 0.0 0.0 0.00 0.13 0.00 55 1003.7
20260505183440 19 0 0.0 0.0 0.00 0.13 0.00 53 1004.0
20260505182439 20 0 0.0 0.0 0.00 0.13 0.00 52 1003.5
20260505181459 20 0 0.0 0.0 0.00 0.13 0.00 50 1003.6
20260505180439 20 0 0.0 0.0 0.00 0.13 0.00 50 1003.6
20260505174458 20 0 0.0 0.0 0.00 0.13 0.00 50 1003.9
20260505173440 21 1 0.0 1.6 0.00 0.13 0.00 50 1004.1
20260505172439 21 0 0.0 0.0 0.00 0.13 0.00 50 1004.1
20260505171501 21 0 0.0 0.0 0.00 0.13 0.00 49 1004.3
20260505170440 21 0 0.0 0.0 0.00 0.13 0.00 48 1004.3
20260505165440 21 0 0.0 0.0 0.00 0.13 0.00 47 1004.5
20260505164458 22 0 0.0 0.0 0.00 0.13 0.00 46 1004.6
20260505163441 22 0 0.0 0.0 0.00 0.13 0.00 45 1004.7
20260505162441 23 181 0.0 1.6 0.00 0.13 0.00 40 1004.5
20260505161501 24 1 0.0 1.6 0.00 0.13 0.00 36 1004.5
20260505160440 25 0 0.0 0.0 0.00 0.13 0.00 37 1004.1
20260505152441 26 0 0.0 0.0 0.00 0.13 0.00 31 1004.4
20260505151455 26 170 0.0 3.2 0.00 0.13 0.00 31 1004.7
20260505150441 25 0 0.0 0.0 0.00 0.13 0.13 33 1004.8
20260505140441 25 0 0.0 0.0 0.00 0.13 0.13 34 1005.3
20260505124458 25 0 0.0 0.0 0.00 0.13 0.13 33 1005.7
20260505123442 25 0 0.0 0.0 0.00 0.13 0.13 33 1005.8
20260505122442 25 0 0.0 0.0 0.00 0.13 0.13 34 1005.8
20260505121504 25 0 0.0 0.0 0.00 0.13 0.13 35 1006.0
20260505120447 25 0 0.0 0.0 0.00 0.13 0.13 35 1006.2
20260505115443 25 0 0.0 0.0 0.00 0.13 0.13 34 1006.2
20260505114501 25 0 0.0 0.0 0.00 0.13 0.13 35 1006.1
20260505113443 26 0 0.0 0.0 0.00 0.13 0.13 34 1006.4
20260505112443 24 0 0.0 0.0 0.00 0.13 0.13 36 1006.5
20260505111504 24 0 0.0 0.0 0.00 0.13 0.13 38 1006.6
20260505110443 25 0 0.0 0.0 0.00 0.13 0.13 40 1006.6
20260505101505 23 46 0.0 1.6 0.00 0.13 0.13 40 1007.1
20260505100444 23 0 0.0 0.0 0.00 0.13 0.13 41 1007.2
20260505095444 23 0 0.0 0.0 0.00 0.13 0.13 41 1007.2
20260505094504 23 0 0.0 0.0 0.00 0.13 0.13 42 1007.4
20260505093444 23 0 0.0 0.0 0.00 0.13 0.13 44 1007.3
20260505092445 23 0 0.0 0.0 0.00 0.13 0.13 44 1007.5
20260505091507 23 0 0.0 0.0 0.00 0.13 0.13 45 1007.4
20260505090444 22 0 0.0 0.0 0.00 0.13 0.13 44 1007.6
20260505085445 23 0 0.0 0.0 0.00 0.13 0.13 43 1007.8
20260505084504 23 0 0.0 0.0 0.00 0.13 0.13 44 1007.8
20260505083445 22 0 0.0 0.0 0.00 0.13 0.13 45 1008.0
20260505082445 23 0 0.0 0.0 0.00 0.13 0.13 46 1008.0
20260505081507 25 0 0.0 0.0 0.00 0.13 0.13 51 1007.9
20260505080445 24 0 0.0 0.0 0.00 0.13 0.13 53 1008.1
20260505075445 23 181 0.0 1.6 0.00 0.13 0.13 53 1008.0
20260505074504 23 55 0.0 1.6 0.00 0.13 0.13 56 1008.1
20260505073445 23 0 0.0 0.0 0.00 0.13 0.13 55 1008.3
20260505072445 23 0 0.0 0.0 0.00 0.13 0.13 55 1008.4
20260505071508 23 0 0.0 0.0 0.00 0.13 0.13 55 1008.3